Weather History for Barter Island, AK

Change the Weather History Date:

Thursday, January 17, 2013

  Actual Average Record
Temperature  
Mean Temperature -20 °F -  
Max Temperature -17 °F -3 °F 43 °F (2009)
Min Temperature -23 °F -14 °F -34 °F (2014)
Degree Days  
Heating Degree Days 84    
Moisture  
Dew Point -25 °F    
Average Humidity 78    
Maximum Humidity 83    
Minimum Humidity 74    
Precipitation  
Precipitation 0.00 in - - ()
Sea Level Pressure  
Sea Level Pressure 30.51 in    
Wind  
Wind Speed 24 mph (West)    
Max Wind Speed 41 mph    
Max Gust Speed 51 mph    
Visibility 2 miles    
Events Snow    
Averages and records for this station are not official NWS values.
T = Trace of Precipitation, MM = Missing Value Source: NWS Daily Summary

Daily Weather History Graph

Daily Weather History Graph

Search for Another Location

Airport:

Trip Planner

Search our weather history database for the weather conditions in past years. The results will help you decide how hot, cold, wet, or windy it might be!

Date:

Astronomy

Jan. 17, 2013 Rise Set
Actual Time 12:17 PM AKST 1:12 PM AKST
Civil Twilight 9:45 AM AKST 3:44 PM AKST
Nautical Twilight 8:15 AM AKST 5:14 PM AKST
Astronomical Twilight 7:00 AM AKST 6:29 PM AKST
Moon 9:54 AM AKST (1/17) 12:33 AM AKST (1/17)
Length of Visible Light 5h 58m
Length of Day
0h 55m
Waxing Crescent, 39% of the Moon is Illuminated
Jan 17
Waxing Crescent
Jan 18
First Quarter
Jan 26
Full
Feb 3
Last Quarter
Feb 9
New

Hourly Weather History & Observations

Time (AKST) Temp. Windchill Dew Point Humidity Pressure Visibility Wind Dir Wind Speed Gust Speed Precip Events Conditions
12:01 AM -18.9 °F -47.2 °F -23.1 °F 81% 30.46 in 3.0 mi West 20.7 mph - N/A   Clear
12:24 AM -18.4 °F -43.7 °F -23.8 °F 76% 30.46 in 2.5 mi West 16.1 mph - N/A   Haze
1:01 AM -18.9 °F -47.2 °F -24.0 °F 78% 30.47 in 2.5 mi West 20.7 mph - N/A   Haze
2:01 AM -20.0 °F -50.4 °F -24.0 °F 82% 30.48 in 2.5 mi West 24.2 mph - N/A   Clear
2:41 AM -20.2 °F -49.5 °F -25.6 °F 76% 30.47 in 1.8 mi West 21.9 mph - N/A   Haze
3:01 AM -20.2 °F -48.9 °F -25.6 °F 76% 30.48 in 2.0 mi West 20.7 mph - 0.00 in Snow Light Snow
4:01 AM -20.2 °F -48.9 °F -23.8 °F 83% 30.47 in 3.0 mi West 20.7 mph - 0.00 in   Clear
4:13 AM -20.2 °F -48.9 °F -25.6 °F 76% 30.47 in 2.5 mi West 20.7 mph - 0.00 in   Haze
4:38 AM -20.0 °F -48.0 °F -25.1 °F 78% 30.48 in 2.5 mi West 19.6 mph - 0.00 in   Haze
5:01 AM -20.0 °F -48.6 °F -25.1 °F 78% 30.48 in 2.5 mi West 20.7 mph - N/A   Haze
5:22 AM -20.2 °F -48.2 °F -25.6 °F 76% 30.48 in 3.0 mi West 19.6 mph - N/A   Haze
5:39 AM -20.2 °F -50.1 °F -25.6 °F 76% 30.48 in 2.5 mi West 23.0 mph - N/A   Haze
6:01 AM -20.0 °F -49.3 °F -25.1 °F 78% 30.48 in 2.5 mi West 21.9 mph - N/A   Haze
6:54 AM -18.4 °F -48.3 °F -23.8 °F 76% 30.49 in 1.8 mi West 24.2 mph - 0.00 in Snow Light Snow
7:01 AM -18.4 °F -46.5 °F -23.8 °F 76% 30.49 in 2.0 mi West 20.7 mph - 0.00 in Snow Light Snow
7:21 AM -20.2 °F -48.9 °F -25.6 °F 76% 30.49 in 3.0 mi WNW 20.7 mph - 0.00 in Snow Light Snow
8:01 AM -20.2 °F -48.2 °F -25.6 °F 76% 30.49 in 2.5 mi West 19.6 mph - 0.00 in Snow Light Snow
8:17 AM -20.2 °F -46.8 °F -25.6 °F 76% 30.49 in 3.0 mi West 17.3 mph - 0.00 in   Haze
9:01 AM -22.0 °F -49.9 °F -27.0 °F 77% 30.50 in 4.0 mi West 18.4 mph - 0.00 in   Haze
10:01 AM -22.0 °F -48.4 °F -27.9 °F 74% 30.51 in 3.0 mi West 16.1 mph - N/A   Haze
10:44 AM -23.8 °F -53.6 °F -27.4 °F 83% 30.51 in 2.5 mi West 20.7 mph - N/A   Haze
11:01 AM -23.8 °F -51.5 °F -27.4 °F 83% 30.50 in 3.0 mi West 17.3 mph - N/A   Haze
11:07 AM -23.1 °F -49.8 °F -27.9 °F 78% 30.51 in 3.0 mi West 16.1 mph - N/A   Haze
12:01 PM -23.8 °F -54.3 °F -27.4 °F 83% 30.51 in 2.5 mi West 21.9 mph - N/A   Haze
12:25 PM -23.1 °F -52.7 °F -27.9 °F 78% 30.51 in 2.0 mi West 20.7 mph - N/A   Haze
12:37 PM -23.8 °F -53.6 °F -27.4 °F 83% 30.51 in 3.0 mi West 20.7 mph - N/A   Haze
1:01 PM -23.1 °F -52.0 °F -27.9 °F 78% 30.52 in 3.0 mi West 19.6 mph - N/A   Haze
1:14 PM -23.8 °F -54.3 °F -27.4 °F 83% 30.52 in 2.0 mi West 21.9 mph - N/A   Haze
1:44 PM -23.8 °F -54.9 °F -27.4 °F 83% 30.52 in 1.8 mi West 23.0 mph - N/A   Haze
2:01 PM -23.8 °F -54.3 °F -27.4 °F 83% 30.52 in 2.0 mi West 21.9 mph - N/A   Haze
2:11 PM -23.8 °F -55.5 °F -27.4 °F 83% 30.53 in 1.8 mi West 24.2 mph - N/A   Haze
2:30 PM -23.8 °F -57.1 °F -27.4 °F 83% 30.53 in 1.0 mi West 27.6 mph - N/A   Haze
2:56 PM -22.0 °F -55.2 °F -27.4 °F 76% 30.52 in 0.8 mi West 28.8 mph 34.5 mph N/A   Haze
3:01 PM -22.0 °F -54.7 °F -27.4 °F 76% 30.52 in 1.0 mi West 27.6 mph 34.5 mph N/A   Haze
3:12 PM -22.0 °F -55.7 °F -27.0 °F 77% 30.53 in 1.0 mi West 29.9 mph - N/A   Haze
3:20 PM -22.0 °F -53.6 °F -27.4 °F 76% 30.52 in 1.5 mi West 25.3 mph - N/A   Haze
3:31 PM -22.0 °F -53.6 °F -27.4 °F 76% 30.53 in 2.0 mi West 25.3 mph - N/A   Haze
3:49 PM -20.2 °F -51.8 °F -25.6 °F 76% 30.52 in 1.5 mi West 26.5 mph - N/A   Haze
4:01 PM -20.9 °F -52.2 °F -26.0 °F 77% 30.52 in 1.5 mi West 25.3 mph - 0.00 in Snow Light Snow
5:01 PM -20.0 °F -52.0 °F -24.0 °F 82% 30.53 in 1.2 mi West 27.6 mph 32.2 mph 0.00 in Snow Light Snow
5:12 PM -18.4 °F -50.8 °F -23.8 °F 76% 30.53 in 1.0 mi West 29.9 mph - 0.00 in Snow Light Snow
5:25 PM -20.2 °F -52.3 °F -23.8 °F 83% 30.53 in 1.2 mi West 27.6 mph - 0.00 in   Clear
5:52 PM -18.4 °F -49.4 °F -23.8 °F 76% 30.52 in 1.0 mi West 26.5 mph 36.8 mph 0.00 in   Haze
6:01 PM -18.9 °F -52.4 °F -24.0 °F 78% 30.53 in 1.0 mi West 32.2 mph 38.0 mph 0.00 in Snow Light Snow
6:15 PM -18.4 °F -51.7 °F -23.8 °F 76% 30.53 in 0.8 mi West 32.2 mph 38.0 mph 0.00 in Snow Light Snow
6:34 PM -18.4 °F -51.7 °F -23.8 °F 76% 30.54 in 1.0 mi West 32.2 mph - 0.00 in Snow Light Snow
7:01 PM -18.4 °F -51.3 °F -23.8 °F 76% 30.53 in 1.0 mi WNW 31.1 mph - 0.00 in Snow Light Snow
7:12 PM -18.4 °F -52.5 °F -23.8 °F 76% 30.54 in 0.8 mi WNW 34.5 mph 40.3 mph 0.00 in Snow Light Snow
7:19 PM -18.4 °F -51.3 °F -23.8 °F 76% 30.53 in 0.8 mi West 31.1 mph 40.3 mph 0.00 in Snow Light Snow
7:38 PM -18.4 °F -51.3 °F -23.8 °F 76% 30.53 in 0.8 mi West 31.1 mph 40.3 mph 0.00 in Snow Light Snow
8:01 PM -18.9 °F -50.6 °F -23.1 °F 81% 30.53 in 0.8 mi West 27.6 mph - 0.00 in Snow Light Snow
8:56 PM -18.4 °F -54.5 °F -23.8 °F 76% 30.55 in 0.5 mi West 40.3 mph 47.2 mph 0.00 in Snow Snow
9:01 PM -18.4 °F -53.7 °F -23.8 °F 76% 30.54 in 0.8 mi West 38.0 mph 47.2 mph 0.00 in Snow Light Snow
9:12 PM -18.0 °F -52.5 °F -22.0 °F 82% 30.53 in 0.8 mi West 35.7 mph 41.4 mph 0.00 in Snow Light Snow
10:01 PM -17.0 °F -52.1 °F -22.0 °F 78% 30.55 in 0.8 mi West 39.1 mph 44.9 mph 0.00 in Snow Light Snow
10:33 PM -16.6 °F -52.0 °F -22.0 °F 76% 30.54 in 0.5 mi West 40.3 mph 44.9 mph 0.00 in Snow Snow
11:01 PM -17.0 °F -52.1 °F -22.0 °F 78% 30.56 in 0.8 mi West 39.1 mph 43.7 mph 0.00 in Snow Light Snow
11:09 PM -16.6 °F -52.0 °F -22.0 °F 76% 30.56 in 0.5 mi West 40.3 mph 49.5 mph 0.00 in Snow Snow
11:31 PM -16.6 °F -51.6 °F -22.0 °F 76% 30.57 in 0.8 mi West 39.1 mph 44.9 mph 0.00 in Snow Light Snow
11:42 PM -16.6 °F -52.3 °F -22.0 °F 76% 30.57 in 0.5 mi West 41.4 mph 50.6 mph 0.00 in Snow Snow
11:54 PM -16.6 °F -50.5 °F -22.0 °F 76% 30.57 in 0.8 mi West 35.7 mph 47.2 mph 0.00 in Snow Light Snow